Regional Weather Roundup
Issued by NWS

Home | Current Version | Previous Version | Text Only | Print | Product List | Glossary Off
Versions: 1 2 3 4 5 6 7 8 9 10 11 12 13 14 15 16 17 18 19 20 21 22 23 24 25 26 27 28 29 30 31 32 33 34 35 36 37 38 39 40 41 42 43 44 45 46 47 48 49 50

000
ASUS45 KTFX 070104
RWRMT
MONTANA HOURLY WEATHER ROUNDUP
NATIONAL WEATHER SERVICE GREAT FALLS MT
604 PM MST FRI MAR 6 2015

NOTE: "FAIR" INDICATES FEW OR NO CLOUDS BELOW 12000 FEET WITH NO
SIGNIFICANT WEATHER AND/OR OBSTRUCTIONS TO VISIBILITY.

* THESE STATIONS ARE NOT UNDER NWS QUALITY CONTROL. THEY DO NOT
   REPORT WEATHER SUCH AS PRECIPITATION OR FOG.

MTZ001>007-043-070200-
WEST OF THE DIVIDE
CITY           SKY/WX    TMP DP  RH WIND       PRES   REMARKS
KALISPELL      CLOUDY    46  27  48 VRB7      30.25S
MISSOULA       CLOUDY    54  18  24 NW7       30.29R
BUTTE          PTCLDY    48  16  28 NW10      30.28S
MULLAN PASS    CLOUDY    41  19  41 W5        30.33S
* ESSEX        N/A       40  26  57 SW2        N/A
* EUREKA APT   CLOUDY    54  23  30 SW8       30.24S
* HAMILTON APT PTCLDY    59  16  18 W7        30.29S
* LIBBY APT    CLOUDY    57  21  25 N3        30.26F
* LINCOLN      N/A       51  18  27 SW8G22     N/A
* LOOKOUT PASS N/A       46  26  46 N1         N/A
* POLSON       N/A       50  25  38 SW2        N/A
* RONAN APT    CLOUDY    55  27  34 N/A        N/A
* SEELEY LAKE  N/A       54  19  25 W7G19      N/A
* THOMP F APT  CLOUDY    42  16  35 S7         N/A
$$

MTZ008-052>055-070200-
SOUTHWEST MONTANA
CITY           SKY/WX    TMP DP  RH WIND       PRES   REMARKS
BOZEMAN        PTCLDY    48  19  32 W10       30.26R
DILLON         CLEAR     50  16  26 W14       30.28S
* W YELLOWSTON PTCLDY    37  19  48 SW5G13     N/A   WCI  33
* THREE FORKS  MOCLDY    52  19  27 N/A        N/A
* BOULDER HILL N/A       48  14  25 SW2G10     N/A
* MONIDA PASS  N/A       45  16  31 NW12       N/A
* RAYNOLDS PAS N/A       32  13  45 SE10       N/A   WCI  24
* WHITEHALL    N/A       60  18  19 W11G21     N/A
* WISE RIVER   N/A       51  13  22 W12G23     N/A
$$

MTZ009>010-012-014-046-048-049-054-070200-
EAST SLOPES AND CENTRAL MONTANA
CITY           SKY/WX    TMP DP  RH WIND       PRES   REMARKS
CUT BANK       CLOUDY    45  21  38 W12       30.15S
GREAT FALLS    CLOUDY    43  19  38 W5        30.17R
HELENA         CLOUDY    55  18  23 NW17G25   30.22R
* DEARBORN     N/A       52  24  34 S6         N/A
* EAST GLACIER N/A       46  20  36 NW18G29    N/A
* MONARCH      N/A       41  16  36 W12        N/A
* PENDROY      N/A       47  22  37 NW10       N/A
* ROGERS PASS  N/A       47  16  29 SE8G22     N/A
* SWEET GRASS  N/A       43  24  47 W16G22     N/A
$$

MTZ011-013-016-021-035-040-045-047-050-051-070200-
NORTH CENTRAL MONTANA
CITY           SKY/WX    TMP DP  RH WIND       PRES   REMARKS
HAVRE          MOCLDY    43  25  49 E8        30.14R
LEWISTOWN      MOCLDY    46  25  44 NW10      30.15R
* N BAR RANCH  CLEAR     46  19  34 VRB6G13   30.15R
* CHINOOK      PTCLDY    46  23  40 N7        30.14R
* FORT BENTON  CLOUDY    52  19  27 NW9       30.17R
* CHESTER      N/A       49  22  35 NW8        N/A
* DENTON       N/A       46  18  33 NW11       N/A
* GEYSER       N/A       45  17  32 W10G16     N/A
* JUDITH GAP   N/A       43  22  43 NW11       N/A
* LOMA         N/A       52  21  30 NW12G19    N/A
$$

MTZ017>020-022>027-061-062-070200-
NORTHEAST MONTANA
CITY           SKY/WX    TMP DP  RH WIND       PRES   REMARKS
GLASGOW        PTCLDY    45  25  45 NW13      30.08R
GLENDIVE       PTCLDY    45  25  45 N13       30.07R
JORDAN         PTCLDY    46  25  44 N16       30.08R
SIDNEY         MOCLDY    43  27  53 W8        30.06S
WOLF POINT     PTCLDY    45  27  49 W12       30.06S
* BEAVER HILL  N/A       45  24  44 NW14G20    N/A
* CIRCLE       N/A       49  30  48 N11G23     N/A
* LINDSAY DVD  N/A       45  26  47 N14G20     N/A
* NAVAJO       N/A       39  29  67 NW18G26    N/A   WCI  30
* PLENTYWOOD A PTCLDY    39  30  70 NW16G24   29.99R WCI  30
* POPLAR APT   MOCLDY    43  28  56 W10       30.05S
* SACO         N/A       47  22  37 NW12       N/A
$$

MTZ028>042-056>058-070200-
SOUTHCENTRAL AND SOUTHEAST MONTANA
CITY           SKY/WX    TMP DP  RH WIND       PRES   REMARKS
BAKER          CLOUDY    48  25  41 W13       30.04R
BILLINGS       PTCLDY    55  18  23 NW17G25   30.15R
LIVINGSTON     PTCLDY    52  19  27 SW16      30.21R
MILES CITY     PTCLDY   N/A N/A N/A N/A        N/A
* BIG TIMBER A PTCLDY    52  18  26 W20G26    30.18S
* FORSYTH APT  PTCLDY    54  21  27 W12G22    30.09R
* LAUREL APT   PTCLDY    55  19  24 W10G17     N/A
* ROUNDUP APT  MOCLDY    55  18  23 NW16G21    N/A
* ALZADA       N/A       42  22  45 SW5        N/A
* HYSHAM       N/A       52  17  25 W8G14      N/A
* REED POINT   N/A       56  22  27 W16G24     N/A
* ROSCOE HILL  N/A       49   9  20 SW6G15     N/A
$$

REGIONAL REPORTS...DAKOTAS
CITY           SKY/WX    TMP DP  RH WIND       PRES   REMARKS
WILLISTON      CLOUDY    43  28  56 W15       30.00S
DICKINSON      CLOUDY    45  27  49 NW10      29.98R
BEACH          CLOUDY    45  25  45 N13       30.05R
CROSBY         MOCLDY    37  32  82 NW23G28   29.96R WCI  26
WATFORD CITY   PTCLDY    43  32  65 W13       29.98S
BISMARCK       CLOUDY    46  28  50 W12       29.97R
GRAND FORKS    CLOUDY    36  25  64 S9        29.91F WCI  29
FARGO          CLOUDY    36  21  54 S9        29.98F WCI  29
BUFFALO SD     PTCLDY    46  19  34 W13       29.97S
RAPID CITY     CLEAR     45  21  38 NW12      30.10R
$$

REGIONAL REPORTS...WYOMING/IDAHO/WASHINGTON
CITY           SKY/WX    TMP DP  RH WIND       PRES   REMARKS
GILLETTE       PTCLDY    39  23  53 W8        30.14R WCI  33
SHERIDAN       PTCLDY    45  25  45 W8        30.14R
CODY           CLEAR     52  18  26 W6        30.21R
YELLOWSTONE LA CLEAR     34  14  44 W7        30.36R WCI  28
SALMON         CLEAR     54  16  22 CALM      30.29F
MULLAN PASS    CLOUDY    41  19  41 W5        30.33S
SAND POINT     CLOUDY    50  28  43 CALM      30.30F
SPOKANE        CLOUDY    57  28  33 SW6       30.30F

$$



USA.gov is the U.S. government's official web portal to all federal, state and local government web resources and services.